Time,TemperatureF,DewpointF,PressureIn,WindDirection,WindDirectionDegrees,WindSpeedMPH,WindSpeedGustMPH,Humidity,HourlyPrecipIn,Conditions,Clouds,dailyrainin,SoftwareType,DateUTC
2013-11-08 00:01:00,39.6,33.6,30.28,NW,309,1.0,1.0,79,0.00,,,0.00,Wunderground v.1.15,2013-11-08 05:01:00,
2013-11-08 00:02:00,39.6,33.3,30.28,NW,309,1.0,1.0,78,0.00,,,0.00,Wunderground v.1.15,2013-11-08 05:02:00,
2013-11-08 00:05:00,39.5,33.2,30.29,NNW,343,0.0,1.0,78,0.00,,,0.00,Wunderground v.1.15,2013-11-08 05:05:00,
2013-11-08 00:06:00,39.5,33.5,30.29,NNW,343,0.0,1.0,79,0.00,,,0.00,Wunderground v.1.15,2013-11-08 05:06:00,
2013-11-08 00:11:00,39.5,33.2,30.29,WNW,287,0.0,1.0,78,0.00,,,0.00,Wunderground v.1.15,2013-11-08 05:11:00,
2013-11-08 00:13:00,39.4,33.4,30.29,WNW,287,1.0,1.0,79,0.00,,,0.00,Wunderground v.1.15,2013-11-08 05:13:00,
2013-11-08 00:19:00,39.3,33.3,30.29,NW,326,0.0,0.0,79,0.00,,,0.00,Wunderground v.1.15,2013-11-08 05:19:00,
2013-11-08 00:24:00,39.3,33.0,30.29,NW,326,1.0,1.0,78,0.00,,,0.00,Wunderground v.1.15,2013-11-08 05:24:00,
2013-11-08 00:30:00,39.2,32.9,30.29,NNE,19,0.0,1.0,78,0.00,,,0.00,Wunderground v.1.15,2013-11-08 05:30:00,
2013-11-08 00:35:00,39.2,33.2,30.30,North,360,0.0,1.0,79,0.00,,,0.00,Wunderground v.1.15,2013-11-08 05:35:00,
2013-11-08 00:40:00,39.1,33.1,30.30,WSW,242,0.0,1.0,79,0.00,,,0.00,Wunderground v.1.15,2013-11-08 05:40:00,
2013-11-08 00:45:00,39.0,33.0,30.30,NNE,18,0.0,2.0,79,0.00,,,0.00,Wunderground v.1.15,2013-11-08 05:45:00,
2013-11-08 00:50:00,38.9,32.6,30.30,WSW,242,1.0,2.0,78,0.00,,,0.00,Wunderground v.1.15,2013-11-08 05:50:00,
2013-11-08 00:56:00,38.9,32.9,30.31,West,276,2.0,2.0,79,0.00,,,0.00,Wunderground v.1.15,2013-11-08 05:56:00,
2013-11-08 01:01:00,38.8,32.5,30.31,NNW,344,2.0,3.0,78,0.00,,,0.00,Wunderground v.1.15,2013-11-08 06:01:00,
2013-11-08 01:06:00,38.8,32.8,30.31,NNW,348,0.0,5.0,79,0.00,,,0.00,Wunderground v.1.15,2013-11-08 06:06:00,
2013-11-08 01:12:00,38.7,32.4,30.31,WSW,247,0.0,2.0,78,0.00,,,0.00,Wunderground v.1.15,2013-11-08 06:12:00,
2013-11-08 01:17:00,38.6,32.6,30.31,North,355,6.0,6.0,79,0.00,,,0.00,Wunderground v.1.15,2013-11-08 06:17:00,
2013-11-08 01:22:00,38.5,32.6,30.31,NW,308,0.0,1.0,79,0.00,,,0.00,Wunderground v.1.15,2013-11-08 06:22:00,
2013-11-08 01:27:00,38.4,32.5,30.31,WSW,246,1.0,1.0,79,0.00,,,0.00,Wunderground v.1.15,2013-11-08 06:27:00,
2013-11-08 01:33:00,38.3,32.4,30.30,WNW,286,1.0,1.0,79,0.00,,,0.00,Wunderground v.1.15,2013-11-08 06:33:00,
2013-11-08 01:39:00,38.2,32.3,30.30,WNW,284,1.0,2.0,79,0.00,,,0.00,Wunderground v.1.15,2013-11-08 06:39:00,
2013-11-08 01:44:00,38.2,32.3,30.30,WNW,295,1.0,1.0,79,0.00,,,0.00,Wunderground v.1.15,2013-11-08 06:44:00,
2013-11-08 01:49:00,38.1,32.2,30.30,NNE,31,0.0,2.0,79,0.00,,,0.00,Wunderground v.1.15,2013-11-08 06:49:00,
2013-11-08 01:55:00,38.0,32.1,30.30,WSW,242,1.0,1.0,79,0.00,,,0.00,Wunderground v.1.15,2013-11-08 06:55:00,
2013-11-08 02:00:00,37.9,32.0,30.30,ENE,64,0.0,1.0,79,0.00,,,0.00,Wunderground v.1.15,2013-11-08 07:00:00,
2013-11-08 02:05:00,37.9,32.0,30.30,NW,306,0.0,2.0,79,0.00,,,0.00,Wunderground v.1.15,2013-11-08 07:05:00,
2013-11-08 02:10:00,37.8,31.9,30.31,East,90,1.0,1.0,79,0.00,,,0.00,Wunderground v.1.15,2013-11-08 07:10:00,
2013-11-08 02:15:00,37.8,31.9,30.31,NW,321,0.0,2.0,79,0.00,,,0.00,Wunderground v.1.15,2013-11-08 07:15:00,
2013-11-08 02:20:00,37.7,32.1,30.31,SSE,155,0.0,1.0,80,0.00,,,0.00,Wunderground v.1.15,2013-11-08 07:20:00,
2013-11-08 02:25:00,37.7,31.8,30.31,SW,236,0.0,5.0,79,0.00,,,0.00,Wunderground v.1.15,2013-11-08 07:25:00,
2013-11-08 02:30:00,37.5,31.9,30.31,NW,313,1.0,3.0,80,0.00,,,0.00,Wunderground v.1.15,2013-11-08 07:30:00,
2013-11-08 02:35:00,37.5,31.6,30.31,NW,308,1.0,6.0,79,0.00,,,0.00,Wunderground v.1.15,2013-11-08 07:35:00,
2013-11-08 02:40:00,37.5,31.6,30.31,WSW,242,0.0,2.0,79,0.00,,,0.00,Wunderground v.1.15,2013-11-08 07:40:00,
2013-11-08 02:45:00,37.4,31.8,30.31,West,259,0.0,2.0,80,0.00,,,0.00,Wunderground v.1.15,2013-11-08 07:45:00,
2013-11-08 02:50:00,37.3,31.7,30.31,NNW,347,2.0,2.0,80,0.00,,,0.00,Wunderground v.1.15,2013-11-08 07:50:00,
2013-11-08 02:55:00,37.2,31.6,30.31,West,280,1.0,4.0,80,0.00,,,0.00,Wunderground v.1.15,2013-11-08 07:55:00,
2013-11-08 03:00:00,37.2,31.6,30.32,West,276,1.0,1.0,80,0.00,,,0.00,Wunderground v.1.15,2013-11-08 08:00:00,
2013-11-08 03:06:00,37.1,31.5,30.31,SSW,209,1.0,6.0,80,0.00,,,0.00,Wunderground v.1.15,2013-11-08 08:06:00,
2013-11-08 03:11:00,37.1,31.5,30.31,NW,325,1.0,1.0,80,0.00,,,0.00,Wunderground v.1.15,2013-11-08 08:11:00,
2013-11-08 03:16:00,37.0,31.1,30.31,NW,323,0.0,2.0,79,0.00,,,0.00,Wunderground v.1.15,2013-11-08 08:16:00,
2013-11-08 03:21:00,37.0,31.1,30.31,NW,320,0.0,2.0,79,0.00,,,0.00,Wunderground v.1.15,2013-11-08 08:21:00,
2013-11-08 03:26:00,37.0,31.1,30.31,NNE,13,0.0,6.0,79,0.00,,,0.00,Wunderground v.1.15,2013-11-08 08:26:00,
2013-11-08 03:31:00,37.0,31.1,30.31,WNW,284,2.0,3.0,79,0.00,,,0.00,Wunderground v.1.15,2013-11-08 08:31:00,
2013-11-08 03:36:00,37.0,31.1,30.32,West,279,0.0,4.0,79,0.00,,,0.00,Wunderground v.1.15,2013-11-08 08:36:00,
2013-11-08 03:41:00,37.0,30.8,30.32,NW,315,0.0,3.0,78,0.00,,,0.00,Wunderground v.1.15,2013-11-08 08:41:00,
2013-11-08 03:46:00,37.0,30.8,30.31,NNW,340,0.0,4.0,78,0.00,,,0.00,Wunderground v.1.15,2013-11-08 08:46:00,
2013-11-08 03:51:00,37.0,30.8,30.32,WNW,296,0.0,1.0,78,0.00,,,0.00,Wunderground v.1.15,2013-11-08 08:51:00,
2013-11-08 03:56:00,37.0,30.8,30.32,NNE,14,1.0,3.0,78,0.00,,,0.00,Wunderground v.1.15,2013-11-08 08:56:00,
2013-11-08 04:01:00,36.9,30.7,30.31,WSW,254,0.0,5.0,78,0.00,,,0.00,Wunderground v.1.15,2013-11-08 09:01:00,
2013-11-08 04:06:00,36.8,30.6,30.32,NNW,347,0.0,5.0,78,0.00,,,0.00,Wunderground v.1.15,2013-11-08 09:06:00,
2013-11-08 04:11:00,36.7,30.5,30.32,NW,309,0.0,2.0,78,0.00,,,0.00,Wunderground v.1.15,2013-11-08 09:11:00,
2013-11-08 04:16:00,36.6,30.4,30.32,WNW,300,1.0,3.0,78,0.00,,,0.00,Wunderground v.1.15,2013-11-08 09:16:00,
2013-11-08 04:21:00,36.6,30.4,30.32,NW,318,2.0,2.0,78,0.00,,,0.00,Wunderground v.1.15,2013-11-08 09:21:00,
2013-11-08 04:26:00,36.5,30.6,30.32,NW,321,0.0,2.0,79,0.00,,,0.00,Wunderground v.1.15,2013-11-08 09:26:00,
2013-11-08 04:31:00,36.3,30.4,30.33,WNW,299,0.0,1.0,79,0.00,,,0.00,Wunderground v.1.15,2013-11-08 09:31:00,
2013-11-08 04:36:00,36.2,30.3,30.33,NW,317,0.0,5.0,79,0.00,,,0.00,Wunderground v.1.15,2013-11-08 09:36:00,
2013-11-08 04:41:00,36.2,30.3,30.33,NNW,342,1.0,2.0,79,0.00,,,0.00,Wunderground v.1.15,2013-11-08 09:41:00,
2013-11-08 04:46:00,36.1,30.2,30.33,NW,321,0.0,3.0,79,0.00,,,0.00,Wunderground v.1.15,2013-11-08 09:46:00,
2013-11-08 04:51:00,36.1,30.2,30.33,NNW,346,1.0,3.0,79,0.00,,,0.00,Wunderground v.1.15,2013-11-08 09:51:00,
2013-11-08 04:56:00,36.0,30.1,30.33,NNW,327,0.0,3.0,79,0.00,,,0.00,Wunderground v.1.15,2013-11-08 09:56:00,
2013-11-08 05:01:00,35.9,30.3,30.33,WNW,303,1.0,2.0,80,0.00,,,0.00,Wunderground v.1.15,2013-11-08 10:01:00,
2013-11-08 05:06:00,35.9,30.3,30.34,WNW,303,0.0,2.0,80,0.00,,,0.00,Wunderground v.1.15,2013-11-08 10:06:00,
2013-11-08 05:11:00,35.8,30.2,30.35,NNW,328,0.0,2.0,80,0.00,,,0.00,Wunderground v.1.15,2013-11-08 10:11:00,
2013-11-08 05:16:00,35.8,30.2,30.35,WNW,289,0.0,2.0,80,0.00,,,0.00,Wunderground v.1.15,2013-11-08 10:16:00,
2013-11-08 05:21:00,35.8,30.2,30.35,NW,308,0.0,1.0,80,0.00,,,0.00,Wunderground v.1.15,2013-11-08 10:21:00,
2013-11-08 05:26:00,35.7,30.1,30.35,NNW,342,0.0,5.0,80,0.00,,,0.00,Wunderground v.1.15,2013-11-08 10:26:00,
2013-11-08 05:31:00,35.7,30.1,30.35,NNW,343,0.0,4.0,80,0.00,,,0.00,Wunderground v.1.15,2013-11-08 10:31:00,
2013-11-08 05:36:00,35.6,30.3,30.35,NNE,14,0.0,4.0,81,0.00,,,0.00,Wunderground v.1.15,2013-11-08 10:36:00,
2013-11-08 05:41:00,35.5,30.2,30.35,NNE,13,5.0,7.0,81,0.00,,,0.00,Wunderground v.1.15,2013-11-08 10:41:00,
2013-11-08 05:46:00,35.4,30.1,30.35,NW,316,0.0,7.0,81,0.00,,,0.00,Wunderground v.1.15,2013-11-08 10:46:00,
2013-11-08 05:51:00,35.3,30.1,30.35,North,5,0.0,2.0,81,0.00,,,0.00,Wunderground v.1.15,2013-11-08 10:51:00,
2013-11-08 05:56:00,35.3,30.1,30.35,NNE,26,0.0,2.0,81,0.00,,,0.00,Wunderground v.1.15,2013-11-08 10:56:00,
2013-11-08 06:01:00,35.2,30.0,30.36,NNW,348,0.0,1.0,81,0.00,,,0.00,Wunderground v.1.15,2013-11-08 11:01:00,
2013-11-08 06:06:00,35.1,29.9,30.36,North,349,0.0,2.0,81,0.00,,,0.00,Wunderground v.1.15,2013-11-08 11:06:00,
2013-11-08 06:11:00,35.1,29.9,30.36,NNE,13,1.0,3.0,81,0.00,,,0.00,Wunderground v.1.15,2013-11-08 11:11:00,
2013-11-08 06:16:00,35.1,29.9,30.36,NNE,27,0.0,3.0,81,0.00,,,0.00,Wunderground v.1.15,2013-11-08 11:16:00,
2013-11-08 06:21:00,35.1,29.6,30.37,NE,46,1.0,3.0,80,0.00,,,0.00,Wunderground v.1.15,2013-11-08 11:21:00,
2013-11-08 06:26:00,35.1,29.6,30.36,NNE,26,0.0,4.0,80,0.00,,,0.00,Wunderground v.1.15,2013-11-08 11:26:00,
2013-11-08 06:31:00,35.1,29.9,30.37,NE,40,0.0,1.0,81,0.00,,,0.00,Wunderground v.1.15,2013-11-08 11:31:00,
2013-11-08 06:36:00,35.1,29.6,30.37,North,349,1.0,2.0,80,0.00,,,0.00,Wunderground v.1.15,2013-11-08 11:36:00,
2013-11-08 06:41:00,35.1,29.6,30.37,NW,311,0.0,1.0,80,0.00,,,0.00,Wunderground v.1.15,2013-11-08 11:41:00,
2013-11-08 06:46:00,35.1,29.9,30.37,ENE,67,0.0,4.0,81,0.00,,,0.00,Wunderground v.1.15,2013-11-08 11:46:00,
2013-11-08 06:51:00,35.0,29.5,30.37,NE,53,1.0,2.0,80,0.00,,,0.00,Wunderground v.1.15,2013-11-08 11:51:00,
2013-11-08 06:56:00,35.0,29.8,30.37,ENE,65,0.0,2.0,81,0.00,,,0.00,Wunderground v.1.15,2013-11-08 11:56:00,
2013-11-08 07:01:00,34.9,29.7,30.38,NNW,348,0.0,5.0,81,0.00,,,0.00,Wunderground v.1.15,2013-11-08 12:01:00,
2013-11-08 07:06:00,34.8,29.6,30.38,NNE,32,0.0,5.0,81,0.00,,,0.00,Wunderground v.1.15,2013-11-08 12:06:00,
2013-11-08 07:11:00,34.8,29.9,30.39,NNW,347,2.0,2.0,82,0.00,,,0.00,Wunderground v.1.15,2013-11-08 12:11:00,
2013-11-08 07:16:00,34.7,29.5,30.38,ENE,57,0.0,2.0,81,0.00,,,0.00,Wunderground v.1.15,2013-11-08 12:16:00,
2013-11-08 07:21:00,34.7,29.5,30.38,NNE,15,0.0,4.0,81,0.00,,,0.00,Wunderground v.1.15,2013-11-08 12:21:00,
2013-11-08 07:26:00,34.7,29.5,30.40,North,355,1.0,5.0,81,0.00,,,0.00,Wunderground v.1.15,2013-11-08 12:26:00,
2013-11-08 07:31:00,34.7,29.8,30.40,NNW,342,0.0,1.0,82,0.00,,,0.00,Wunderground v.1.15,2013-11-08 12:31:00,
2013-11-08 07:36:00,34.8,29.6,30.40,North,355,0.0,4.0,81,0.00,,,0.00,Wunderground v.1.15,2013-11-08 12:36:00,
2013-11-08 07:41:00,34.9,29.7,30.40,NE,46,0.0,1.0,81,0.00,,,0.00,Wunderground v.1.15,2013-11-08 12:41:00,
2013-11-08 07:46:00,34.9,29.7,30.40,NE,46,0.0,2.0,81,0.00,,,0.00,Wunderground v.1.15,2013-11-08 12:46:00,
2013-11-08 07:51:00,35.0,29.8,30.40,North,11,0.0,2.0,81,0.00,,,0.00,Wunderground v.1.15,2013-11-08 12:51:00,
2013-11-08 07:57:00,35.2,30.0,30.40,NNE,24,0.0,5.0,81,0.00,,,0.00,Wunderground v.1.15,2013-11-08 12:57:00,
2013-11-08 08:02:00,35.3,29.7,30.41,NW,320,0.0,3.0,80,0.00,,,0.00,Wunderground v.1.15,2013-11-08 13:02:00,
2013-11-08 08:07:00,35.5,29.9,30.42,NW,325,1.0,9.0,80,0.00,,,0.00,Wunderground v.1.15,2013-11-08 13:07:00,
2013-11-08 08:12:00,35.7,30.1,30.41,NNE,20,1.0,3.0,80,0.00,,,0.00,Wunderground v.1.15,2013-11-08 13:12:00,
2013-11-08 08:17:00,36.0,30.4,30.42,North,360,1.0,5.0,80,0.00,,,0.00,Wunderground v.1.15,2013-11-08 13:17:00,
2013-11-08 08:22:00,36.2,30.3,30.42,NNW,339,0.0,2.0,79,0.00,,,0.00,Wunderground v.1.15,2013-11-08 13:22:00,
2013-11-08 08:27:00,36.4,30.8,30.42,NNW,345,0.0,2.0,80,0.00,,,0.00,Wunderground v.1.15,2013-11-08 13:27:00,
2013-11-08 08:32:00,36.7,30.8,30.43,North,350,0.0,2.0,79,0.00,,,0.00,Wunderground v.1.15,2013-11-08 13:32:00,
2013-11-08 08:37:00,37.0,31.1,30.42,NNE,17,0.0,3.0,79,0.00,,,0.00,Wunderground v.1.15,2013-11-08 13:37:00,
2013-11-08 08:42:00,37.3,31.4,30.42,North,5,1.0,2.0,79,0.00,,,0.00,Wunderground v.1.15,2013-11-08 13:42:00,
2013-11-08 08:47:00,37.7,31.5,30.42,NNE,21,1.0,9.0,78,0.00,,,0.00,Wunderground v.1.15,2013-11-08 13:47:00,
2013-11-08 08:52:00,38.0,31.4,30.43,ENE,69,0.0,3.0,77,0.00,,,0.00,Wunderground v.1.15,2013-11-08 13:52:00,
2013-11-08 08:57:00,38.3,31.4,30.43,WNW,292,1.0,4.0,76,0.00,,,0.00,Wunderground v.1.15,2013-11-08 13:57:00,
2013-11-08 09:02:00,38.7,31.5,30.43,WNW,300,0.0,2.0,75,0.00,,,0.00,Wunderground v.1.15,2013-11-08 14:02:00,
2013-11-08 09:07:00,39.0,31.4,30.43,North,350,1.0,7.0,74,0.00,,,0.00,Wunderground v.1.15,2013-11-08 14:07:00,
2013-11-08 09:12:00,39.3,31.7,30.43,NNW,336,4.0,6.0,74,0.00,,,0.00,Wunderground v.1.15,2013-11-08 14:12:00,
2013-11-08 09:17:00,39.5,31.6,30.44,West,281,1.0,6.0,73,0.00,,,0.00,Wunderground v.1.15,2013-11-08 14:17:00,
2013-11-08 09:22:00,39.8,31.2,30.44,WNW,286,0.0,4.0,71,0.00,,,0.00,Wunderground v.1.15,2013-11-08 14:22:00,
2013-11-08 09:27:00,40.0,31.4,30.44,North,349,0.0,7.0,71,0.00,,,0.00,Wunderground v.1.15,2013-11-08 14:27:00,
2013-11-08 09:32:00,40.4,31.7,30.44,North,360,1.0,2.0,71,0.00,,,0.00,Wunderground v.1.15,2013-11-08 14:32:00,
2013-11-08 09:38:00,40.8,31.4,30.43,NW,318,1.0,5.0,69,0.00,,,0.00,Wunderground v.1.15,2013-11-08 14:38:00,
2013-11-08 09:43:00,41.1,31.7,30.44,North,350,1.0,3.0,69,0.00,,,0.00,Wunderground v.1.15,2013-11-08 14:43:00,
2013-11-08 09:48:00,41.4,31.3,30.43,West,275,2.0,4.0,67,0.00,,,0.00,Wunderground v.1.15,2013-11-08 14:48:00,
2013-11-08 09:53:00,41.7,30.8,30.43,NE,49,1.0,10.0,65,0.00,,,0.00,Wunderground v.1.15,2013-11-08 14:53:00,
2013-11-08 09:58:00,42.0,30.3,30.44,WNW,298,1.0,10.0,63,0.00,,,0.00,Wunderground v.1.15,2013-11-08 14:58:00,
2013-11-08 10:03:00,42.2,29.3,30.44,NW,319,1.0,5.0,60,0.00,,,0.00,Wunderground v.1.15,2013-11-08 15:03:00,
2013-11-08 10:08:00,42.5,30.0,30.43,North,9,1.0,5.0,61,0.00,,,0.00,Wunderground v.1.15,2013-11-08 15:08:00,
2013-11-08 10:13:00,42.8,29.5,30.44,NE,49,1.0,2.0,59,0.00,,,0.00,Wunderground v.1.15,2013-11-08 15:13:00,
2013-11-08 10:18:00,43.2,30.2,30.44,NE,47,3.0,4.0,60,0.00,,,0.00,Wunderground v.1.15,2013-11-08 15:18:00,
2013-11-08 10:23:00,43.5,29.7,30.44,NW,326,0.0,5.0,58,0.00,,,0.00,Wunderground v.1.15,2013-11-08 15:23:00,
2013-11-08 10:28:00,43.6,29.4,30.44,NW,321,2.0,5.0,57,0.00,,,0.00,Wunderground v.1.15,2013-11-08 15:28:00,
2013-11-08 10:33:00,43.7,28.6,30.44,NW,309,0.0,2.0,55,0.00,,,0.00,Wunderground v.1.15,2013-11-08 15:33:00,
2013-11-08 10:38:00,43.9,28.3,30.44,NW,323,2.0,4.0,54,0.00,,,0.00,Wunderground v.1.15,2013-11-08 15:38:00,
2013-11-08 10:43:00,44.1,28.0,30.44,WSW,246,0.0,3.0,53,0.00,,,0.00,Wunderground v.1.15,2013-11-08 15:43:00,
2013-11-08 10:48:00,44.4,27.4,30.45,NNW,335,1.0,4.0,51,0.00,,,0.00,Wunderground v.1.15,2013-11-08 15:48:00,
2013-11-08 10:53:00,44.8,27.3,30.45,WNW,295,2.0,7.0,50,0.00,,,0.00,Wunderground v.1.15,2013-11-08 15:53:00,
2013-11-08 10:58:00,44.8,27.3,30.45,WNW,301,1.0,7.0,50,0.00,,,0.00,Wunderground v.1.15,2013-11-08 15:58:00,
2013-11-08 11:03:00,44.8,27.3,30.45,WNW,290,2.0,8.0,50,0.00,,,0.00,Wunderground v.1.15,2013-11-08 16:03:00,
2013-11-08 11:08:00,44.7,27.2,30.45,NNW,334,0.0,11.0,50,0.00,,,0.00,Wunderground v.1.15,2013-11-08 16:08:00,
2013-11-08 11:13:00,44.8,26.8,30.45,NW,305,2.0,6.0,49,0.00,,,0.00,Wunderground v.1.15,2013-11-08 16:13:00,
2013-11-08 11:18:00,45.0,27.0,30.45,WNW,300,2.0,6.0,49,0.00,,,0.00,Wunderground v.1.15,2013-11-08 16:18:00,
2013-11-08 11:23:00,45.2,27.2,30.45,West,270,3.0,10.0,49,0.00,,,0.00,Wunderground v.1.15,2013-11-08 16:23:00,
2013-11-08 11:28:00,45.4,27.8,30.45,NNW,330,2.0,10.0,50,0.00,,,0.00,Wunderground v.1.15,2013-11-08 16:28:00,
2013-11-08 11:33:00,45.7,27.6,30.45,NNW,339,2.0,6.0,49,0.00,,,0.00,Wunderground v.1.15,2013-11-08 16:33:00,
2013-11-08 11:38:00,45.9,26.8,30.45,WSW,244,1.0,6.0,47,0.00,,,0.00,Wunderground v.1.15,2013-11-08 16:38:00,
2013-11-08 11:43:00,46.0,26.9,30.45,WNW,301,2.0,4.0,47,0.00,,,0.00,Wunderground v.1.15,2013-11-08 16:43:00,
2013-11-08 11:48:00,46.2,26.5,30.45,WNW,286,2.0,5.0,46,0.00,,,0.00,Wunderground v.1.15,2013-11-08 16:48:00,
2013-11-08 11:53:00,46.2,27.6,30.45,NW,316,2.0,3.0,48,0.00,,,0.00,Wunderground v.1.15,2013-11-08 16:53:00,
2013-11-08 11:58:00,46.6,27.4,30.44,NNW,337,3.0,6.0,47,0.00,,,0.00,Wunderground v.1.15,2013-11-08 16:58:00,
2013-11-08 12:03:00,46.9,27.7,30.44,West,275,4.0,5.0,47,0.00,,,0.00,Wunderground v.1.15,2013-11-08 17:03:00,
2013-11-08 12:08:00,47.1,26.3,30.43,West,274,2.0,7.0,44,0.00,,,0.00,Wunderground v.1.15,2013-11-08 17:08:00,
2013-11-08 12:13:00,47.1,26.8,30.43,West,263,3.0,3.0,45,0.00,,,0.00,Wunderground v.1.15,2013-11-08 17:13:00,
2013-11-08 12:18:00,47.4,27.1,30.43,NNE,23,3.0,4.0,45,0.00,,,0.00,Wunderground v.1.15,2013-11-08 17:18:00,
2013-11-08 12:23:00,47.5,27.2,30.43,WNW,298,2.0,5.0,45,0.00,,,0.00,Wunderground v.1.15,2013-11-08 17:23:00,
2013-11-08 12:28:00,47.6,27.8,30.43,ENE,61,0.0,5.0,46,0.00,,,0.00,Wunderground v.1.15,2013-11-08 17:28:00,
2013-11-08 12:34:00,48.0,27.6,30.42,WNW,296,0.0,3.0,45,0.00,,,0.00,Wunderground v.1.15,2013-11-08 17:34:00,
2013-11-08 12:39:00,48.2,27.8,30.42,NE,40,1.0,12.0,45,0.00,,,0.00,Wunderground v.1.15,2013-11-08 17:39:00,
2013-11-08 12:44:00,48.3,27.4,30.42,NW,307,2.0,3.0,44,0.00,,,0.00,Wunderground v.1.15,2013-11-08 17:44:00,
2013-11-08 12:49:00,48.4,29.1,30.41,NE,37,5.0,5.0,47,0.00,,,0.00,Wunderground v.1.15,2013-11-08 17:49:00,
2013-11-08 12:54:00,48.4,27.5,30.41,NE,48,0.0,7.0,44,0.00,,,0.00,Wunderground v.1.15,2013-11-08 17:54:00,
2013-11-08 12:59:00,48.4,27.5,30.41,NNE,26,4.0,7.0,44,0.00,,,0.00,Wunderground v.1.15,2013-11-08 17:59:00,
2013-11-08 13:04:00,48.5,28.1,30.41,NNW,339,0.0,5.0,45,0.00,,,0.00,Wunderground v.1.15,2013-11-08 18:04:00,
2013-11-08 13:09:00,48.7,27.7,30.41,WNW,294,2.0,5.0,44,0.00,,,0.00,Wunderground v.1.15,2013-11-08 18:09:00,
2013-11-08 13:14:00,48.6,26.5,30.40,West,267,0.0,7.0,42,0.00,,,0.00,Wunderground v.1.15,2013-11-08 18:14:00,
2013-11-08 13:19:00,48.5,27.0,30.41,North,5,1.0,7.0,43,0.00,,,0.00,Wunderground v.1.15,2013-11-08 18:19:00,
2013-11-08 13:24:00,48.5,27.0,30.40,North,355,1.0,4.0,43,0.00,,,0.00,Wunderground v.1.15,2013-11-08 18:24:00,
2013-11-08 13:29:00,48.8,27.3,30.40,North,5,0.0,4.0,43,0.00,,,0.00,Wunderground v.1.15,2013-11-08 18:29:00,
2013-11-08 13:34:00,49.0,28.0,30.40,West,271,3.0,7.0,44,0.00,,,0.00,Wunderground v.1.15,2013-11-08 18:34:00,
2013-11-08 13:39:00,49.2,25.9,30.40,West,279,2.0,7.0,40,0.00,,,0.00,Wunderground v.1.15,2013-11-08 18:39:00,
2013-11-08 13:44:00,49.4,26.7,30.40,WNW,287,2.0,3.0,41,0.00,,,0.00,Wunderground v.1.15,2013-11-08 18:44:00,
2013-11-08 13:49:00,49.7,27.5,30.40,West,267,4.0,5.0,42,0.00,,,0.00,Wunderground v.1.15,2013-11-08 18:49:00,
2013-11-08 13:54:00,49.5,26.1,30.40,NW,325,1.0,5.0,40,0.00,,,0.00,Wunderground v.1.15,2013-11-08 18:54:00,
2013-11-08 13:59:00,49.5,27.3,30.40,West,279,0.0,5.0,42,0.00,,,0.00,Wunderground v.1.15,2013-11-08 18:59:00,
2013-11-08 14:04:00,49.5,26.1,30.40,NW,304,1.0,4.0,40,0.00,,,0.00,Wunderground v.1.15,2013-11-08 19:04:00,
2013-11-08 14:09:00,49.5,26.7,30.40,NE,39,3.0,4.0,41,0.00,,,0.00,Wunderground v.1.15,2013-11-08 19:09:00,
2013-11-08 14:14:00,49.4,27.2,30.40,NNW,345,1.0,7.0,42,0.00,,,0.00,Wunderground v.1.15,2013-11-08 19:14:00,
2013-11-08 14:19:00,49.4,27.2,30.40,NNW,327,1.0,7.0,42,0.00,,,0.00,Wunderground v.1.15,2013-11-08 19:19:00,
2013-11-08 14:24:00,49.5,26.1,30.40,North,355,2.0,8.0,40,0.00,,,0.00,Wunderground v.1.15,2013-11-08 19:24:00,
2013-11-08 14:29:00,49.5,26.7,30.40,NNW,333,2.0,8.0,41,0.00,,,0.00,Wunderground v.1.15,2013-11-08 19:29:00,
2013-11-08 14:34:00,49.4,26.7,30.40,North,5,0.0,10.0,41,0.00,,,0.00,Wunderground v.1.15,2013-11-08 19:34:00,
2013-11-08 14:39:00,49.4,27.2,30.40,North,5,1.0,10.0,42,0.00,,,0.00,Wunderground v.1.15,2013-11-08 19:39:00,
2013-11-08 14:44:00,49.5,26.1,30.40,NW,315,1.0,4.0,40,0.00,,,0.00,Wunderground v.1.15,2013-11-08 19:44:00,
2013-11-08 14:49:00,49.6,26.8,30.40,North,5,5.0,9.0,41,0.00,,,0.00,Wunderground v.1.15,2013-11-08 19:49:00,
2013-11-08 14:54:00,49.6,26.2,30.40,SE,142,0.0,9.0,40,0.00,,,0.00,Wunderground v.1.15,2013-11-08 19:54:00,
2013-11-08 14:59:00,49.5,27.3,30.40,NNW,339,5.0,12.0,42,0.00,,,0.00,Wunderground v.1.15,2013-11-08 19:59:00,
2013-11-08 15:04:00,49.5,27.3,30.40,NE,42,0.0,9.0,42,0.00,,,0.00,Wunderground v.1.15,2013-11-08 20:04:00,
2013-11-08 15:09:00,49.4,26.7,30.39,North,9,4.0,9.0,41,0.00,,,0.00,Wunderground v.1.15,2013-11-08 20:09:00,
2013-11-08 15:14:00,49.4,27.2,30.40,North,350,1.0,13.0,42,0.00,,,0.00,Wunderground v.1.15,2013-11-08 20:14:00,
2013-11-08 15:19:00,49.4,27.8,30.39,NNE,30,0.0,13.0,43,0.00,,,0.00,Wunderground v.1.15,2013-11-08 20:19:00,
2013-11-08 15:24:00,49.4,27.2,30.39,NW,313,1.0,7.0,42,0.00,,,0.00,Wunderground v.1.15,2013-11-08 20:24:00,
2013-11-08 15:29:00,49.5,26.7,30.40,North,355,1.0,2.0,41,0.00,,,0.00,Wunderground v.1.15,2013-11-08 20:29:00,
2013-11-08 15:34:00,49.4,27.8,30.39,ENE,59,0.0,5.0,43,0.00,,,0.00,Wunderground v.1.15,2013-11-08 20:34:00,
2013-11-08 15:40:00,49.4,27.8,30.39,North,355,0.0,1.0,43,0.00,,,0.00,Wunderground v.1.15,2013-11-08 20:40:00,
2013-11-08 15:45:00,49.3,28.3,30.39,North,360,1.0,7.0,44,0.00,,,0.00,Wunderground v.1.15,2013-11-08 20:45:00,
2013-11-08 15:50:00,49.4,27.8,30.40,North,360,0.0,1.0,43,0.00,,,0.00,Wunderground v.1.15,2013-11-08 20:50:00,
2013-11-08 15:54:00,49.5,27.9,30.40,North,9,1.0,2.0,43,0.00,,,0.00,Wunderground v.1.15,2013-11-08 20:54:00,
2013-11-08 15:59:00,49.4,27.8,30.39,NW,321,1.0,1.0,43,0.00,,,0.00,Wunderground v.1.15,2013-11-08 20:59:00,
2013-11-08 16:05:00,49.2,28.2,30.39,NNE,13,0.0,4.0,44,0.00,,,0.00,Wunderground v.1.15,2013-11-08 21:05:00,
2013-11-08 16:10:00,49.1,28.1,30.39,North,360,1.0,2.0,44,0.00,,,0.00,Wunderground v.1.15,2013-11-08 21:10:00,
2013-11-08 16:15:00,49.1,28.1,30.39,NNW,347,0.0,5.0,44,0.00,,,0.00,Wunderground v.1.15,2013-11-08 21:15:00,
2013-11-08 16:20:00,49.0,28.0,30.39,North,5,0.0,1.0,44,0.00,,,0.00,Wunderground v.1.15,2013-11-08 21:20:00,
2013-11-08 16:25:00,49.0,28.0,30.39,NNE,19,2.0,3.0,44,0.00,,,0.00,Wunderground v.1.15,2013-11-08 21:25:00,
2013-11-08 16:30:00,48.9,27.4,30.39,NNE,30,4.0,4.0,43,0.00,,,0.00,Wunderground v.1.15,2013-11-08 21:30:00,
2013-11-08 16:35:00,48.7,27.7,30.39,NNW,339,0.0,4.0,44,0.00,,,0.00,Wunderground v.1.15,2013-11-08 21:35:00,
2013-11-08 16:40:00,48.5,28.1,30.39,North,355,0.0,1.0,45,0.00,,,0.00,Wunderground v.1.15,2013-11-08 21:40:00,
2013-11-08 16:45:00,48.3,27.4,30.39,NW,309,0.0,3.0,44,0.00,,,0.00,Wunderground v.1.15,2013-11-08 21:45:00,
2013-11-08 16:50:00,48.1,27.7,30.39,North,5,0.0,1.0,45,0.00,,,0.00,Wunderground v.1.15,2013-11-08 21:50:00,
2013-11-08 16:55:00,48.0,28.2,30.39,North,5,0.0,1.0,46,0.00,,,0.00,Wunderground v.1.15,2013-11-08 21:55:00,
2013-11-08 17:00:00,47.9,28.6,30.39,NNE,25,0.0,1.0,47,0.00,,,0.00,Wunderground v.1.15,2013-11-08 22:00:00,
2013-11-08 17:05:00,47.7,28.4,30.40,NNE,25,0.0,2.0,47,0.00,,,0.00,Wunderground v.1.15,2013-11-08 22:05:00,
2013-11-08 17:10:00,47.5,28.3,30.40,NNE,25,0.0,1.0,47,0.00,,,0.00,Wunderground v.1.15,2013-11-08 22:10:00,
2013-11-08 17:15:00,47.3,28.6,30.40,North,9,0.0,3.0,48,0.00,,,0.00,Wunderground v.1.15,2013-11-08 22:15:00,
2013-11-08 17:20:00,47.0,28.8,30.40,North,5,0.0,2.0,49,0.00,,,0.00,Wunderground v.1.15,2013-11-08 22:20:00,
2013-11-08 17:25:00,46.6,29.4,30.39,North,360,0.0,3.0,51,0.00,,,0.00,Wunderground v.1.15,2013-11-08 22:25:00,
2013-11-08 17:30:00,46.3,29.1,30.40,North,350,1.0,1.0,51,0.00,,,0.00,Wunderground v.1.15,2013-11-08 22:30:00,
2013-11-08 17:35:00,46.0,28.9,30.40,NNE,14,0.0,3.0,51,0.00,,,0.00,Wunderground v.1.15,2013-11-08 22:35:00,
2013-11-08 17:40:00,45.7,29.1,30.40,NNE,14,1.0,1.0,52,0.00,,,0.00,Wunderground v.1.15,2013-11-08 22:40:00,
2013-11-08 17:45:00,45.5,29.3,30.40,NNE,14,0.0,1.0,53,0.00,,,0.00,Wunderground v.1.15,2013-11-08 22:45:00,
2013-11-08 17:50:00,45.2,29.1,30.40,NNE,14,0.0,0.0,53,0.00,,,0.00,Wunderground v.1.15,2013-11-08 22:50:00,
2013-11-08 17:55:00,44.9,28.8,30.40,NNE,14,0.0,1.0,53,0.00,,,0.00,Wunderground v.1.15,2013-11-08 22:55:00,
2013-11-08 18:00:00,44.7,29.1,30.40,NNE,14,0.0,1.0,54,0.00,,,0.00,Wunderground v.1.15,2013-11-08 23:00:00,
2013-11-08 18:05:00,44.5,29.3,30.41,NNE,14,0.0,1.0,55,0.00,,,0.00,Wunderground v.1.15,2013-11-08 23:05:00,
2013-11-08 18:10:00,44.1,29.4,30.40,NNE,14,0.0,0.0,56,0.00,,,0.00,Wunderground v.1.15,2013-11-08 23:10:00,
2013-11-08 18:15:00,43.8,29.1,30.41,NNE,14,0.0,0.0,56,0.00,,,0.00,Wunderground v.1.15,2013-11-08 23:15:00,
2013-11-08 18:21:00,43.4,28.3,30.40,NNE,14,0.0,0.0,55,0.00,,,0.00,Wunderground v.1.15,2013-11-08 23:21:00,
2013-11-08 18:26:00,43.1,28.9,30.40,NNE,14,0.0,0.0,57,0.00,,,0.00,Wunderground v.1.15,2013-11-08 23:26:00,
2013-11-08 18:31:00,42.9,28.7,30.41,NNE,14,0.0,0.0,57,0.00,,,0.00,Wunderground v.1.15,2013-11-08 23:31:00,
2013-11-08 18:36:00,42.5,28.8,30.41,NNE,14,0.0,0.0,58,0.00,,,0.00,Wunderground v.1.15,2013-11-08 23:36:00,
2013-11-08 18:41:00,42.2,28.9,30.41,NNE,14,0.0,0.0,59,0.00,,,0.00,Wunderground v.1.15,2013-11-08 23:41:00,
2013-11-08 18:46:00,42.0,29.1,30.41,NNE,14,0.0,0.0,60,0.00,,,0.00,Wunderground v.1.15,2013-11-08 23:46:00,
2013-11-08 18:51:00,41.7,28.8,30.41,NNE,14,0.0,0.0,60,0.00,,,0.00,Wunderground v.1.15,2013-11-08 23:51:00,
2013-11-08 18:56:00,41.4,28.9,30.42,NNE,14,0.0,0.0,61,0.00,,,0.00,Wunderground v.1.15,2013-11-08 23:56:00,
2013-11-08 19:01:00,41.2,29.2,30.42,NNE,14,0.0,0.0,62,0.00,,,0.00,Wunderground v.1.15,2013-11-09 00:01:00,
2013-11-08 19:06:00,40.9,30.0,30.42,NNE,14,0.0,0.0,65,0.00,,,0.00,Wunderground v.1.15,2013-11-09 00:06:00,
2013-11-08 19:11:00,40.6,29.0,30.42,NNE,14,0.0,0.0,63,0.00,,,0.00,Wunderground v.1.15,2013-11-09 00:11:00,
2013-11-08 19:16:00,40.4,29.6,30.42,NNE,14,0.0,0.0,65,0.00,,,0.00,Wunderground v.1.15,2013-11-09 00:16:00,
2013-11-08 19:21:00,40.1,29.3,30.41,NNE,14,0.0,0.0,65,0.00,,,0.00,Wunderground v.1.15,2013-11-09 00:21:00,
2013-11-08 19:26:00,39.8,29.0,30.42,NNE,14,0.0,0.0,65,0.00,,,0.00,Wunderground v.1.15,2013-11-09 00:26:00,
2013-11-08 19:31:00,39.4,29.3,30.42,NNE,14,0.0,0.0,67,0.00,,,0.00,Wunderground v.1.15,2013-11-09 00:31:00,
2013-11-08 19:36:00,39.1,29.1,30.42,NNE,14,0.0,0.0,67,0.00,,,0.00,Wunderground v.1.15,2013-11-09 00:36:00,
2013-11-08 19:41:00,38.9,28.9,30.42,NNE,14,0.0,0.0,67,0.00,,,0.00,Wunderground v.1.15,2013-11-09 00:41:00,
2013-11-08 19:46:00,38.6,28.2,30.42,NNE,14,0.0,0.0,66,0.00,,,0.00,Wunderground v.1.15,2013-11-09 00:46:00,
2013-11-08 19:51:00,38.5,28.9,30.42,NNE,14,0.0,0.0,68,0.00,,,0.00,Wunderground v.1.15,2013-11-09 00:51:00,
2013-11-08 19:56:00,38.2,28.9,30.42,NNE,14,0.0,0.0,69,0.00,,,0.00,Wunderground v.1.15,2013-11-09 00:56:00,
2013-11-08 20:01:00,37.8,28.9,30.42,NNE,14,0.0,0.0,70,0.00,,,0.00,Wunderground v.1.15,2013-11-09 01:01:00,
2013-11-08 20:06:00,37.5,29.6,30.42,NNE,14,0.0,0.0,73,0.00,,,0.00,Wunderground v.1.15,2013-11-09 01:06:00,
2013-11-08 20:11:00,37.1,28.6,30.43,NNE,14,0.0,0.0,71,0.00,,,0.00,Wunderground v.1.15,2013-11-09 01:11:00,
2013-11-08 20:17:00,36.9,28.4,30.43,NNE,14,0.0,0.0,71,0.00,,,0.00,Wunderground v.1.15,2013-11-09 01:17:00,
2013-11-08 20:21:00,36.7,28.2,30.42,NNE,14,0.0,0.0,71,0.00,,,0.00,Wunderground v.1.15,2013-11-09 01:21:00,
2013-11-08 20:27:00,36.5,28.0,30.43,NNE,14,0.0,0.0,71,0.00,,,0.00,Wunderground v.1.15,2013-11-09 01:27:00,
2013-11-08 20:31:00,36.4,28.6,30.43,NNE,14,0.0,0.0,73,0.00,,,0.00,Wunderground v.1.15,2013-11-09 01:31:00,
2013-11-08 20:37:00,36.3,28.8,30.43,NNE,14,0.0,0.0,74,0.00,,,0.00,Wunderground v.1.15,2013-11-09 01:37:00,
2013-11-08 20:41:00,36.2,28.7,30.43,NNE,14,0.0,0.0,74,0.00,,,0.00,Wunderground v.1.15,2013-11-09 01:41:00,
2013-11-08 20:46:00,36.1,28.9,30.43,NNE,14,0.0,0.0,75,0.00,,,0.00,Wunderground v.1.15,2013-11-09 01:46:00,
2013-11-08 20:52:00,35.9,28.4,30.44,NNE,14,0.0,0.0,74,0.00,,,0.00,Wunderground v.1.15,2013-11-09 01:52:00,
2013-11-08 20:57:00,35.8,28.6,30.44,NNE,14,0.0,0.0,75,0.00,,,0.00,Wunderground v.1.15,2013-11-09 01:57:00,
2013-11-08 21:02:00,35.7,28.6,30.44,NNE,14,0.0,0.0,75,0.00,,,0.00,Wunderground v.1.15,2013-11-09 02:02:00,
2013-11-08 21:07:00,35.6,28.8,30.44,NNE,14,0.0,0.0,76,0.00,,,0.00,Wunderground v.1.15,2013-11-09 02:07:00,
2013-11-08 21:12:00,35.5,28.7,30.44,NNE,14,0.0,0.0,76,0.00,,,0.00,Wunderground v.1.15,2013-11-09 02:12:00,
2013-11-08 21:17:00,35.4,28.9,30.44,NNE,14,0.0,0.0,77,0.00,,,0.00,Wunderground v.1.15,2013-11-09 02:17:00,
2013-11-08 21:22:00,35.2,28.7,30.44,NNE,14,0.0,0.0,77,0.00,,,0.00,Wunderground v.1.15,2013-11-09 02:22:00,
2013-11-08 21:27:00,35.1,29.2,30.44,NNE,14,0.0,0.0,79,0.00,,,0.00,Wunderground v.1.15,2013-11-09 02:27:00,
2013-11-08 21:32:00,34.8,29.0,30.44,NNE,14,0.0,0.0,79,0.00,,,0.00,Wunderground v.1.15,2013-11-09 02:32:00,
2013-11-08 21:37:00,34.6,28.4,30.44,NNE,14,0.0,0.0,78,0.00,,,0.00,Wunderground v.1.15,2013-11-09 02:37:00,
2013-11-08 21:42:00,34.2,28.4,30.43,NNE,14,0.0,0.0,79,0.00,,,0.00,Wunderground v.1.15,2013-11-09 02:42:00,
2013-11-08 21:47:00,34.2,28.7,30.44,NNE,14,0.0,0.0,80,0.00,,,0.00,Wunderground v.1.15,2013-11-09 02:47:00,
2013-11-08 21:52:00,33.9,28.4,30.44,NNE,14,0.0,0.0,80,0.00,,,0.00,Wunderground v.1.15,2013-11-09 02:52:00,
2013-11-08 21:57:00,33.7,28.5,30.44,NNE,14,0.0,0.0,81,0.00,,,0.00,Wunderground v.1.15,2013-11-09 02:57:00,
2013-11-08 22:02:00,33.5,28.3,30.44,NNE,14,0.0,0.0,81,0.00,,,0.00,Wunderground v.1.15,2013-11-09 03:02:00,
2013-11-08 22:07:00,33.3,28.1,30.45,NNE,14,0.0,0.0,81,0.00,,,0.00,Wunderground v.1.15,2013-11-09 03:07:00,
2013-11-08 22:12:00,33.2,28.3,30.45,NNE,14,0.0,0.0,82,0.00,,,0.00,Wunderground v.1.15,2013-11-09 03:12:00,
2013-11-08 22:18:00,33.0,28.1,30.45,NNE,14,0.0,0.0,82,0.00,,,0.00,Wunderground v.1.15,2013-11-09 03:18:00,
2013-11-08 22:23:00,33.0,28.1,30.44,NNE,14,0.0,0.0,82,0.00,,,0.00,Wunderground v.1.15,2013-11-09 03:23:00,
2013-11-08 22:28:00,32.9,28.0,30.44,NNE,14,0.0,0.0,82,0.00,,,0.00,Wunderground v.1.15,2013-11-09 03:28:00,
2013-11-08 22:33:00,32.8,27.9,30.45,NNE,14,0.0,0.0,82,0.00,,,0.00,Wunderground v.1.15,2013-11-09 03:33:00,
2013-11-08 22:38:00,32.7,27.8,30.45,NNE,14,0.0,0.0,82,0.00,,,0.00,Wunderground v.1.15,2013-11-09 03:38:00,
2013-11-08 22:43:00,32.6,28.0,30.44,NNE,14,0.0,0.0,83,0.00,,,0.00,Wunderground v.1.15,2013-11-09 03:43:00,
2013-11-08 22:48:00,32.5,28.2,30.44,NNE,14,0.0,0.0,84,0.00,,,0.00,Wunderground v.1.15,2013-11-09 03:48:00,
2013-11-08 22:53:00,32.4,28.1,30.44,NNE,14,0.0,0.0,84,0.00,,,0.00,Wunderground v.1.15,2013-11-09 03:53:00,
2013-11-08 22:58:00,32.3,28.0,30.44,NNE,14,0.0,0.0,84,0.00,,,0.00,Wunderground v.1.15,2013-11-09 03:58:00,
2013-11-08 23:03:00,32.2,27.9,30.45,NNE,14,0.0,0.0,84,0.00,,,0.00,Wunderground v.1.15,2013-11-09 04:03:00,
2013-11-08 23:08:00,32.0,28.0,30.44,NNE,14,0.0,0.0,85,0.00,,,0.00,Wunderground v.1.15,2013-11-09 04:08:00,
2013-11-08 23:13:00,31.8,27.5,30.45,NNE,14,0.0,0.0,84,0.00,,,0.00,Wunderground v.1.15,2013-11-09 04:13:00,
2013-11-08 23:18:00,31.7,27.7,30.45,NNE,14,0.0,0.0,85,0.00,,,0.00,Wunderground v.1.15,2013-11-09 04:18:00,
2013-11-08 23:23:00,31.6,27.9,30.44,NNE,14,0.0,0.0,86,0.00,,,0.00,Wunderground v.1.15,2013-11-09 04:23:00,
2013-11-08 23:28:00,31.4,27.7,30.45,NNE,14,0.0,0.0,86,0.00,,,0.00,Wunderground v.1.15,2013-11-09 04:28:00,
2013-11-08 23:33:00,31.3,27.6,30.45,NNE,14,0.0,0.0,86,0.00,,,0.00,Wunderground v.1.15,2013-11-09 04:33:00,
2013-11-08 23:38:00,31.1,27.7,30.45,NNE,14,0.0,0.0,87,0.00,,,0.00,Wunderground v.1.15,2013-11-09 04:38:00,
2013-11-08 23:43:00,31.0,27.6,30.45,NNE,14,0.0,0.0,87,0.00,,,0.00,Wunderground v.1.15,2013-11-09 04:43:00,
2013-11-08 23:48:00,30.8,27.4,30.45,NNE,14,0.0,0.0,87,0.00,,,0.00,Wunderground v.1.15,2013-11-09 04:48:00,
2013-11-08 23:53:00,30.7,27.3,30.46,NNE,14,0.0,0.0,87,0.00,,,0.00,Wunderground v.1.15,2013-11-09 04:53:00,
2013-11-08 23:58:00,30.6,27.2,30.46,NNE,14,0.0,0.0,87,0.00,,,0.00,Wunderground v.1.15,2013-11-09 04:58:00,